Weather History for KRND - November, 2011

Change the Weather History Date:

Monday, November 7, 2011

  Actual Average (KSAT) Record (KSAT)
Temperature  
Mean Temperature 73 °F 64 °F  
Max Temperature 78 °F 75 °F 88 °F (2005)
Min Temperature 68 °F 53 °F 27 °F (1959)
Degree Days  
Heating Degree Days 0 4  
Month to date heating degree days 23  
Since 1 July heating degree days 56  
Cooling Degree Days 8 3  
Month to date cooling degree days 25  
Year to date cooling degree days 3080  
Growing Degree Days 23 (Base 50)    
Moisture  
Dew Point 67 °F    
Average Humidity 82    
Maximum Humidity 94    
Minimum Humidity 61    
Precipitation  
Precipitation 0.23 in 0.09 in 1.47 in (1888)
Month to date precipitation 0.64  
Year to date precipitation 28.72  
Snow  
Snow 0.00 in - - ()
Month to date snowfall  
Since 1 July snowfall  
Since 1 September snowfall  
Snow Depth -    
Sea Level Pressure  
Sea Level Pressure 29.95 in    
Wind  
Wind Speed 11 mph (SSE)    
Max Wind Speed 21 mph    
Max Gust Speed 26 mph    
Visibility 10 miles    
Events Rain    
T = Trace of Precipitation, MM = Missing Value Source: NWS Daily Summary

Daily Weather History Graph

Daily Weather History Graph

Search for Another Location

Airport or City:

Trip Planner

Search our weather history database for the weather conditions in past years. The results will help you decide how hot, cold, wet, or windy it might be!

Date:

Astronomy

Nov. 07, 2011 Rise Set
Actual Time 6:50 AM CST 5:42 PM CST
Civil Twilight 6:25 AM CST 6:07 PM CST
Nautical Twilight 5:57 AM CST 6:35 PM CST
Astronomical Twilight 5:29 AM CST 7:03 PM CST
Moon 3:46 PM CST (11/7) 4:04 AM CST (11/7)
Length of Visible Light 11h 41m
Length of Day
10h 51m
Waxing Gibbous, 92% of the Moon is Illuminated
Nov 7
Waxing Gibbous
Nov 10
Full
Nov 18
Last Quarter
Nov 25
New
Dec 2
First Quarter

Hourly Weather History & Observations

Time (CST) Temp. Dew Point Humidity Pressure Visibility Wind Dir Wind Speed Gust Speed Precip Events Conditions
12:17 AM 71.6 °F 68.0 °F 88% 29.99 in 10.0 mi SSE 13.8 mph - N/A   Overcast
12:20 AM 71.6 °F 68.0 °F 88% 29.99 in 10.0 mi SSE 11.5 mph - N/A   Overcast
12:47 AM 71.6 °F 68.0 °F 88% 29.99 in 10.0 mi SSE 11.5 mph - N/A   Overcast
12:55 AM 71.8 °F 67.1 °F 85% 29.99 in 10.0 mi SSE 13.8 mph - N/A   Overcast
1:01 AM 71.6 °F 68.0 °F 88% 29.99 in 10.0 mi SSE 11.5 mph - N/A   Overcast
1:14 AM 71.6 °F 68.0 °F 88% 29.99 in 10.0 mi SSE 11.5 mph - N/A   Overcast
1:55 AM 71.4 °F 67.5 °F 87% 29.99 in 10.0 mi SSE 8.1 mph - N/A   Overcast
2:45 AM 71.6 °F 66.2 °F 83% 29.98 in 10.0 mi SSE 6.9 mph - N/A   Overcast
2:52 AM 69.8 °F 68.0 °F 94% 29.98 in 10.0 mi SSE 8.1 mph - N/A   Overcast
2:55 AM 70.5 °F 67.3 °F 89% 29.98 in 10.0 mi SSE 6.9 mph - N/A   Overcast
3:05 AM 69.8 °F 66.2 °F 88% 29.97 in 10.0 mi SSE 6.9 mph - N/A   Overcast
3:06 AM 69.8 °F 68.0 °F 94% 29.97 in 10.0 mi SSE 8.1 mph - N/A   Overcast
3:09 AM 69.8 °F 68.0 °F 94% 29.98 in 10.0 mi SSE 6.9 mph - N/A   Overcast
3:55 AM 70.2 °F 67.1 °F 90% 29.98 in 10.0 mi SSE 9.2 mph - N/A   Mostly Cloudy
3:59 AM 69.8 °F 68.0 °F 94% 29.98 in 10.0 mi SSE 8.1 mph - N/A   Mostly Cloudy
4:00 AM 69.8 °F 66.2 °F 88% 29.98 in 10.0 mi SSE 8.1 mph - N/A   Mostly Cloudy
4:07 AM 69.8 °F 66.2 °F 88% 29.97 in 10.0 mi SSE 8.1 mph - N/A   Mostly Cloudy
4:55 AM 68.9 °F 66.6 °F 92% 29.97 in 10.0 mi SE 8.1 mph - N/A   Scattered Clouds
5:40 AM 69.8 °F 66.2 °F 88% 29.97 in 10.0 mi SE 5.8 mph - N/A   Overcast
5:55 AM 69.3 °F 67.1 °F 93% 29.97 in 10.0 mi SE 5.8 mph - N/A   Overcast
6:03 AM 69.8 °F 68.0 °F 94% 29.97 in 10.0 mi SE 5.8 mph - N/A   Overcast
6:18 AM 69.8 °F 68.0 °F 94% 29.98 in 10.0 mi ESE 5.8 mph - N/A   Overcast
6:25 AM 69.8 °F 68.0 °F 94% 29.98 in 10.0 mi SE 6.9 mph - N/A   Overcast
6:39 AM 69.8 °F 68.0 °F 94% 29.98 in 10.0 mi ESE 4.6 mph - N/A   Overcast
6:55 AM 70.0 °F 67.3 °F 91% 29.98 in 10.0 mi ESE 6.9 mph - N/A   Overcast
7:34 AM 69.8 °F 68.0 °F 94% 29.98 in 7.0 mi SE 10.4 mph - N/A   Overcast
7:51 AM 71.6 °F 68.0 °F 88% 29.99 in 7.0 mi SE 10.4 mph - N/A   Overcast
7:55 AM 71.2 °F 68.0 °F 89% 29.99 in 7.0 mi SSE 10.4 mph - 0.23 in   Overcast
8:03 AM 71.6 °F 68.0 °F 88% 29.99 in 10.0 mi SE 10.4 mph - N/A   Overcast
8:17 AM 71.6 °F 68.0 °F 88% 29.99 in 10.0 mi SSE 11.5 mph - N/A   Overcast
8:36 AM 71.6 °F 68.0 °F 88% 29.99 in 10.0 mi SE 11.5 mph - N/A   Overcast
8:37 AM 71.6 °F 68.0 °F 88% 29.99 in 10.0 mi SE 11.5 mph - N/A   Overcast
8:40 AM 71.6 °F 68.0 °F 88% 29.99 in 10.0 mi SE 13.8 mph - N/A   Overcast
8:55 AM 72.9 °F 68.4 °F 86% 29.99 in 10.0 mi SSE 11.5 mph - N/A   Overcast
9:30 AM 75.2 °F 68.0 °F 78% 29.99 in 10.0 mi South 17.3 mph - N/A   Mostly Cloudy
9:50 AM 75.2 °F 66.2 °F 73% 29.99 in 10.0 mi SSE 20.7 mph - N/A   Mostly Cloudy
9:55 AM 75.6 °F 66.6 °F 74% 29.99 in 10.0 mi South 18.4 mph - N/A   Mostly Cloudy
9:58 AM 75.2 °F 66.2 °F 73% 29.99 in 10.0 mi SSE 17.3 mph - N/A   Mostly Cloudy
10:29 AM 77.0 °F 66.2 °F 69% 29.99 in 10.0 mi South 17.3 mph 21.9 mph N/A   Overcast
10:55 AM 78.1 °F 66.4 °F 67% 29.97 in 10.0 mi South 15.0 mph - N/A   Mostly Cloudy
11:22 AM 78.8 °F 64.4 °F 61% 29.96 in 10.0 mi South 20.7 mph 26.5 mph N/A   Overcast
11:55 AM 78.1 °F 65.1 °F 64% 29.95 in 10.0 mi SSE 18.4 mph - N/A   Mostly Cloudy
11:56 AM 78.1 °F 65.1 °F 64% 29.95 in 10.0 mi SSE 18.4 mph - N/A   Mostly Cloudy
12:55 PM 78.1 °F 64.9 °F 64% 29.91 in 10.0 mi South 15.0 mph - N/A   Mostly Cloudy
12:58 PM 77.0 °F 66.2 °F 69% 29.91 in 10.0 mi South 13.8 mph - N/A   Light Drizzle
1:20 PM 77.0 °F 66.2 °F 69% 29.90 in 10.0 mi South 12.7 mph - N/A   Overcast
1:46 PM 78.8 °F 66.2 °F 65% 29.90 in 5.0 mi SSE 19.6 mph 25.3 mph N/A Rain Light Rain
1:55 PM 74.5 °F 68.4 °F 81% 29.88 in 8.0 mi South 13.8 mph 26.5 mph 0.00 in   Light Drizzle
2:16 PM 73.4 °F 68.0 °F 83% 29.88 in 10.0 mi SSE 13.8 mph - N/A   Overcast
2:17 PM 73.4 °F 68.0 °F 83% 29.88 in 10.0 mi SSE 12.7 mph - N/A   Light Drizzle
2:30 PM 73.4 °F 68.0 °F 83% 29.88 in 10.0 mi South 9.2 mph - N/A   Overcast
2:55 PM 75.4 °F 68.0 °F 78% 29.87 in 10.0 mi SSE 9.2 mph - 0.00 in   Mostly Cloudy
3:55 PM 78.8 °F 64.4 °F 61% 29.85 in 10.0 mi SSE 15.0 mph - N/A   Overcast
4:55 PM 78.3 °F 64.4 °F 62% 29.86 in 10.0 mi SE 12.7 mph - N/A   Overcast
5:55 PM 76.5 °F 64.8 °F 67% 29.87 in 10.0 mi SE 18.4 mph 24.2 mph N/A   Overcast
6:00 PM 77.0 °F 64.4 °F 65% 29.88 in 10.0 mi SE 18.4 mph - N/A   Light Drizzle
6:09 PM 75.2 °F 64.4 °F 69% 29.88 in 10.0 mi SE 16.1 mph - N/A   Overcast
6:55 PM 74.8 °F 64.6 °F 70% 29.91 in 10.0 mi SSE 10.4 mph - 0.00 in   Overcast
7:55 PM 74.1 °F 64.8 °F 72% 29.91 in 10.0 mi SSE 13.8 mph - N/A   Overcast
8:55 PM 72.5 °F 65.5 °F 79% 29.92 in 10.0 mi SSE 11.5 mph - N/A   Overcast
9:55 PM 72.0 °F 66.4 °F 83% 29.93 in 10.0 mi SSE 12.7 mph - N/A   Scattered Clouds
10:55 PM 71.4 °F 66.0 °F 83% 29.92 in 10.0 mi SSE 12.7 mph - N/A   Mostly Cloudy
11:36 PM 69.8 °F 66.2 °F 88% 29.92 in 10.0 mi SSE 8.1 mph - N/A   Mostly Cloudy
11:55 PM 70.7 °F 66.4 °F 86% 29.91 in 10.0 mi SSE 8.1 mph - N/A   Overcast